TimeMDT,TemperatureF,Dew PointF,Humidity,Sea Level PressureIn,VisibilityMPH,Wind Direction,Wind SpeedMPH,Gust SpeedMPH,PrecipitationIn,Events,Conditions,WindDirDegrees,DateUTC
12:51 AM,28.0,23.0,81,30.47,10.0,East,3.5,-,N/A,,Clear,100,2013-10-05 06:51:00
1:51 AM,28.0,24.1,85,30.48,10.0,Calm,Calm,-,N/A,,Clear,0,2013-10-05 07:51:00
2:51 AM,27.0,21.9,81,30.47,10.0,Calm,Calm,-,N/A,,Clear,0,2013-10-05 08:51:00
3:51 AM,27.0,21.9,81,30.48,10.0,Calm,Calm,-,N/A,,Clear,0,2013-10-05 09:51:00
4:51 AM,25.0,21.0,85,30.49,10.0,Calm,Calm,-,N/A,,Clear,0,2013-10-05 10:51:00
5:51 AM,25.0,19.9,81,30.48,10.0,Calm,Calm,-,N/A,,Clear,0,2013-10-05 11:51:00
6:51 AM,25.0,21.0,85,30.50,10.0,Calm,Calm,-,N/A,,Clear,0,2013-10-05 12:51:00
7:51 AM,24.1,19.9,84,30.52,9.0,Calm,Calm,-,N/A,,Clear,0,2013-10-05 13:51:00
8:51 AM,28.0,24.1,85,30.53,10.0,Calm,Calm,-,N/A,,Clear,0,2013-10-05 14:51:00
9:51 AM,32.0,27.0,82,30.52,10.0,Calm,Calm,-,N/A,,Clear,0,2013-10-05 15:51:00
10:51 AM,37.9,28.0,68,30.52,10.0,Calm,Calm,-,N/A,,Clear,0,2013-10-05 16:51:00
11:51 AM,44.1,26.1,49,30.50,10.0,Variable,3.5,-,N/A,,Clear,0,2013-10-05 17:51:00
12:51 PM,48.0,27.0,44,30.49,10.0,Variable,4.6,-,N/A,,Clear,0,2013-10-05 18:51:00
1:51 PM,51.1,27.0,39,30.46,10.0,SSE,5.8,-,N/A,,Clear,150,2013-10-05 19:51:00
2:51 PM,54.0,27.0,35,30.43,10.0,Calm,Calm,-,N/A,,Clear,0,2013-10-05 20:51:00
3:51 PM,55.9,28.0,34,30.41,10.0,Variable,4.6,-,N/A,,Clear,0,2013-10-05 21:51:00
4:51 PM,57.0,27.0,32,30.40,10.0,WNW,5.8,-,N/A,,Clear,290,2013-10-05 22:51:00
5:51 PM,55.9,27.0,33,30.40,10.0,West,8.1,-,N/A,,Clear,270,2013-10-05 23:51:00
6:51 PM,52.0,28.0,40,30.41,10.0,WNW,4.6,-,N/A,,Clear,300,2013-10-06 00:51:00
7:51 PM,46.9,28.0,48,30.44,10.0,Calm,Calm,-,N/A,,Clear,0,2013-10-06 01:51:00
8:51 PM,39.9,30.0,68,30.45,10.0,NE,3.5,-,N/A,,Clear,50,2013-10-06 02:51:00
9:51 PM,39.0,28.9,67,30.45,10.0,Calm,Calm,-,N/A,,Clear,0,2013-10-06 03:51:00
10:51 PM,36.0,28.0,73,30.45,10.0,Calm,Calm,-,N/A,,Clear,0,2013-10-06 04:51:00
11:51 PM,33.1,27.0,78,30.43,10.0,Calm,Calm,-,N/A,,Clear,0,2013-10-06 05:51:00